Flag for United Kingdom Weather past 2 weeks in Portsmouth, England, United Kingdom

Now
46 °F

Passing clouds.


Feels Like: 42 °F
Forecast: 46 / 54 °F
Wind: 9 mph from Southwest

Location: Southampton / Weather Centre

Current Time: Apr 28, 2015 at 9:47:12 PM

Latest Report: Apr 28, 2015 at 9:20 PM


Visibility: N/A

Pressure: 30.09 "Hg

Humidity: 66%

Dew point: 36 °F

Location of PortsmouthLocation

Historic Weather in Portsmouth — Graph

°F

Portsmouth temperature yesterday

Maximum temperature yesterday: 54 °F (at 2:50 PM)
Minimum temperature yesterday: 34 °F (at 5:50 AM)
Average temperature yesterday: 47 °F

Past Weeks' High & Low Weather Summary

 TemperatureHumidityPressure
High73 °F (Apr 15, 2:20 PM)100% (Apr 15, 6:50 AM)30.54 "Hg (Apr 15, 6:50 AM)
Low34 °F (Apr 20, 5:50 AM)36% (Apr 15, 4:50 PM)29.68 "Hg (Apr 25, 5:50 AM)
Average52 °F63%30.10 "Hg
* Reported Apr 13 8:20 PM — Apr 28 8:50 PM, Portsmouth, Weather by CustomWeather, © 2015

Note: Actual official high and low records may vary slightly from our data, if they occured in-between our weather recording intervals... More about our weather records

Advertising

Portsmouth weather history for previous 24 hours

 ConditionsComfort  
Time TempWeatherWind HumidityBarometerVisibility
8:50 PM
Tue, Apr 28
46 °FPassing clouds.8 mph66%30.09 "HgN/A
8:20 PM46 °FPassing clouds.8 mph66%30.09 "HgN/A
7:50 PM48 °FPassing clouds.10 mph58%30.09 "HgN/A
7:20 PM48 °FPassing clouds.12 mph58%30.09 "HgN/A
6:50 PM50 °FPassing clouds.15 mph54%30.09 "HgN/A
6:20 PM50 °FScattered clouds.15 mph54%30.09 "HgN/A
5:50 PM50 °FScattered clouds.14 mph58%30.07 "HgN/A
5:20 PM50 °FPassing clouds.18 mph54%30.09 "HgN/A
4:50 PM50 °FPassing clouds.15 mph58%30.09 "HgN/A
4:20 PM50 °FPassing clouds.17 mph54%30.09 "HgN/A
3:50 PM50 °FPassing clouds.20 mph58%30.09 "HgN/A
3:20 PM54 °FPassing clouds.8 mph47%30.09 "HgN/A
2:50 PM50 °FPassing clouds.8 mph50%30.09 "HgN/A
2:20 PM50 °FPassing clouds.13 mph43%30.09 "HgN/A
1:50 PM52 °FPassing clouds.12 mph44%30.09 "HgN/A
1:20 PM52 °FScattered clouds.8 mph47%30.09 "HgN/A
12:50 PM50 °FScattered clouds.10 mph43%30.09 "HgN/A
12:20 PM50 °FPassing clouds.10 mph43%30.09 "HgN/A
11:50 AM48 °FPassing clouds.12 mph50%30.09 "HgN/A
11:20 AM48 °FPassing clouds.10 mph50%30.09 "HgN/A
10:50 AM48 °FPassing clouds.12 mph50%30.09 "HgN/A
10:20 AM48 °FPassing clouds.15 mph54%30.07 "HgN/A
9:50 AM46 °FPassing clouds.12 mph53%30.07 "HgN/A
9:20 AM45 °FPassing clouds.9 mph61%30.07 "HgN/A
8:50 AM43 °FPassing clouds.9 mph61%30.07 "HgN/A
8:20 AM43 °FPassing clouds.9 mph66%30.07 "HgN/A
7:50 AM39 °FPassing clouds.6 mph75%30.04 "HgN/A
7:20 AM39 °FPassing clouds.5 mph75%30.04 "HgN/A
6:50 AM37 °FSunny.3 mph81%30.01 "Hg10 mi
6:20 AM36 °FClear.No wind87%30.01 "Hg10 mi
5:50 AM36 °FClear.2 mph87%30.01 "Hg10 mi
10:20 PM
Mon, Apr 27
45 °FClear.3 mph71%29.92 "Hg10 mi
9:50 PM45 °FClear.3 mph71%29.92 "Hg10 mi
9:20 PM45 °FPassing clouds.3 mph71%29.92 "HgN/A
Weather by CustomWeather, © 2015

See weather overviewHow to use our weather pages